www.pogodaiklimat.ru

Погода и климат >> Архив погоды >> Австралия >> Западная Австралия >> Саутерн Кросс


ПОГОДА в Саутерн Кросс

  • Прогноз погоды в Саутерн Кросс
  • Монитор погоды в Саутерн Кросс

АРХИВ ПОГОДЫ в Саутерн Кросс

Время (UTC), дата Ветер
(напр.,м/с)
 
Видим.   Явления Облачность Т
(С)
Тd
(С)
f
(%)
Тe
(С)
Тes
(С)
Комфортность P
(гПа)
Po
(гПа)
Тmin
(С)
Tmax
(С)
R
(мм)
R24
(мм)
S
(см)
19 18.05 штиль 0 н/о н/о -1.4 -3.0 89 -3 -3 1021.8 980.8
21 18.05 штиль 0 н/о н/о -3.0 -4.6 89 -4 -4 1021.5 980.5
22 18.05 штиль 0 н/о н/о -2.9 -4.6 88 -4 -4 1021.5 980.5
00 19.05 штиль 0 н/о н/о +2.3 -0.4 82 +1 +1 1022.3 981.3
01 19.05 С 3 н/о н/о +6.5 +1.0 68 +4 +4 1022.3 981.3 -3.3
03 19.05 С 5 н/о н/о +12.6 +1.3 46 +11 +11 1021.6 980.6
04 19.05 С 4 н/о н/о +14.4 +1.3 41 +14 +14 1020.3 979.3
06 19.05 СЗ 4 н/о н/о +17.1 -0.6 30 +17 +17 1018.6 977.7
07 19.05 С 4 н/о н/о +17.4 -1.8 27 +17 +17 1018.0 977.1
09 19.05 СЗ 3 н/о н/о +15.1 -1.9 31 +15 +15 1017.6 976.8
10 19.05 СВ 3 н/о н/о +10.5 -1.9 42 +9 +9 1017.3 976.5
12 19.05 СВ 2 н/о н/о +9.9 -1.2 46 +9 +9 1017.3 976.5
13 19.05 С 2 н/о 6/0
[]
+7.9 -0.8 54 +6 +6 1017.2 976.4 +18.3
15 19.05 С 2 н/о н/о +7.1 -0.6 58 +6 +6 1016.6 975.8
16 19.05 штиль 0 н/о н/о +5.3 -1.8 60 +5 +5 1016.6 975.8
18 19.05 С 3 н/о н/о +7.4 -1.3 54 +5 +5 1015.9 975.1
19 19.05 С 4 н/о н/о +9.0 -2.0 46 +7 +7 1015.4 974.6
21 19.05 штиль 0 н/о н/о +6.3 -2.6 53 +6 +6 1014.6 973.9
22 19.05 ЮЗ 3 н/о 9/0
[]
+4.3 -1.9 64 +1 +1 1016.1 975.3
00 20.05 С 1 н/о н/о +9.9 -1.2 46 +11 +11 1016.8 976.0
01 20.05 С 4 н/о 9/0
[]
+13.7 -2.3 33 +13 +14 1016.8 976.0 +2.2
03 20.05 З 4 н/о н/о +18.2 +8.5 53 +18 +18 1017.2 976.4
04 20.05 З 8 н/о 10/10 600 м
[]
+20.8 +11.7 56 +23 +23 комфорт 1016.4 975.6
06 20.05 З 7 н/о н/о +21.1 +11.4 54 +23 +23 комфорт 1016.3 975.5
07 20.05 З 7 н/о 8/8 1000 м
[]
+20.8 +11.4 55 +23 +23 комфорт 1016.7 975.9
09 20.05 З 5 н/о н/о +19.7 +11.2 58 +21 +21 комфорт 1017.9 977.0
10 20.05 З 4 н/о 10/10 1000 м
[]
+19.2 +11.0 59 +20 +20 1018.6 977.7
12 20.05 ЮЗ 3 н/о н/о +16.1 +10.8 71 +16 +16 1019.8 978.9
13 20.05 З 2 н/о 10/10 1000 м
[]
+15.6 +11.2 75 +15 +15 1020.4 979.4 +22.1
15 20.05 СЗ 1 н/о н/о +14.0 +10.0 77 +15 +15 1020.5 979.5
16 20.05 З 2 н/о н/о +11.9 +9.8 87 +11 +11 1020.6 979.6
18 20.05 ЮВ 2 н/о н/о +9.8 +7.1 83 +8 +8 1020.8 979.8
19 20.05 штиль 0 н/о 1/1 1000 м
[]
+7.4 +5.4 87 +7 +7 1021.1 980.1
21 20.05 штиль 0 н/о н/о +6.3 +4.5 88 +5 +5 1021.4 980.4
22 20.05 Ю 2 н/о 1/1 1000 м
[]
+5.1 +3.4 89 +2 +2 1022.0 981.0
00 21.05 штиль 0 н/о н/о +9.1 +7.2 88 +8 +8 1023.5 982.4
01 21.05 штиль 0 н/о 10/10 1000 м
[]
+13.1 +8.0 71 +13 +13 1024.1 983.0 +4.3
03 21.05 Ю 2 н/о н/о +16.3 +7.3 55 +16 +16 1023.6 982.5
04 21.05 З 3 н/о н/о +18.0 +7.4 50 +18 +18 1022.9 981.8
06 21.05 С 2 н/о н/о +19.6 +7.4 45 +21 +21 комфорт 1021.9 980.9
07 21.05 ЮЗ 4 н/о 6/6 1000 м
[]
+20.1 +7.1 43 +21 +22 комфорт 1021.9 980.9
09 21.05 З 4 н/о н/о +17.5 +6.1 47 +17 +17 1022.6 981.6
10 21.05 Ю 3 н/о н/о +14.8 +5.6 54 +14 +14 1023.2 982.1
12 21.05 ЮВ 3 н/о н/о +11.9 +4.9 62 +10 +10 1023.4 982.3
13 21.05 штиль 0 н/о н/о +9.4 +3.8 68 +9 +9 1023.6 982.5
15 21.05 штиль 0 н/о н/о +7.1 +3.2 76 +6 +6 1023.9 982.8
16 21.05 штиль 0 н/о 5/5 1500 м
[]
+6.4 +2.5 76 +6 +6 1023.8 982.7
18 21.05 штиль 0 н/о н/о +6.8 +3.1 77 +6 +6 1023.6 982.5
19 21.05 ЮЗ 2 н/о 10/10 1500 м
[]
+6.7 +3.1 78 +5 +5 1023.5 982.4
21 21.05 штиль 0 н/о н/о +6.8 +3.4 79 +6 +6 1023.2 982.1
22 21.05 Ю 2 н/о 10/10 1500 м
[]
+8.0 +4.0 76 +7 +7 1023.4 982.3
00 22.05 штиль 0 н/о н/о +9.6 +4.8 72 +9 +9 1023.4 982.3
01 22.05 З 2 н/о н/о +14.5 +6.3 58 +15 +15 1023.5 982.4
03 22.05 С 4 н/о н/о +21.8 +7.6 40 +23 +23 комфорт 1022.3 981.3
04 22.05 С 4 500 м н/о +23.2 +6.9 35 +24 +24 комфорт 1021.4 980.4
06 22.05 СЗ 3 н/о н/о +26.4 +5.9 27 +26 +26 жарко 1018.7 977.8
07 22.05 С 3 н/о н/о +26.4 +5.4 26 +26 +26 жарко 1018.4 977.5
09 22.05 СЗ 3 н/о н/о +23.7 +4.6 29 +23 +23 комфорт 1018.6 977.7
10 22.05 Ю 2 н/о н/о +18.9 +4.7 39 +20 +20 1019.1 978.2
12 22.05 Ю 2 н/о н/о +14.0 +3.8 50 +14 +14 1020.0 979.1
13 22.05 Ю 4 н/о н/о +15.6 +7.6 59 +15 +15 1020.4 979.4
15 22.05 Ю 3 н/о н/о +14.5 +7.8 64 +14 +14 1021.3 980.3
16 22.05 ЮЗ 3 н/о н/о +11.1 +6.6 74 +9 +9 1021.1 980.1
18 22.05 ЮЗ 3 н/о н/о +9.2 +5.8 79 +7 +7 1021.3 980.3
19 22.05 Ю 3 н/о н/о +10.1 +5.9 75 +8 +8 1021.5 980.5
21 22.05 ЮЗ 3 н/о н/о +7.5 +4.8 83 +5 +5 1021.6 980.6
22 22.05 З 2 н/о 10/0
[]
+8.3 +5.9 85 +7 +7 1022.3 981.3
00 23.05 штиль 0 н/о н/о +10.4 +6.0 74 +10 +10 1024.0 982.9
01 23.05 Ю 1 н/о 8/0
[]
+14.1 +6.2 59 +15 +18 1024.1 983.0
03 23.05 Ю 5 н/о н/о +18.3 +5.5 43 +18 +18 1024.2 983.1
04 23.05 ЮЗ 5 н/о 3/0
[]
+19.2 +6.7 44 +20 +24 1023.2 982.1
06 23.05 ЮЗ 4 н/о н/о +19.8 +5.1 38 +21 +21 комфорт 1022.1 981.1
07 23.05 Ю 5 н/о н/о +19.3 +5.4 40 +20 +20 1022.4 981.4
09 23.05 Ю 3 н/о н/о +17.2 +4.9 44 +17 +17 1022.8 981.7
10 23.05 Ю 3 н/о н/о +15.0 +4.7 50 +14 +14 1023.1 982.0
12 23.05 штиль 0 н/о н/о +12.0 +4.0 58 +12 +12 1023.9 982.8
13 23.05 ЮВ 1 н/о н/о +9.5 +2.8 63 +9 +9 1024.0 982.9 +20.3
15 23.05 Ю 1 н/о н/о +7.0 +2.1 71 +6 +6 1023.5 982.4
16 23.05 штиль 0 н/о н/о +6.1 +1.6 73 +5 +5 1023.5 982.4
18 23.05 ЮВ 2 н/о н/о +5.7 +2.0 77 +4 +4 1023.2 982.1
19 23.05 Ю 1 н/о н/о +4.1 +0.4 77 +4 +4 1023.1 982.0
21 23.05 штиль 0 н/о н/о +2.4 -0.7 80 +1 +1 1023.4 982.3
22 23.05 Ю 2 н/о 10/0
[]
+2.4 -0.4 82 -0 -0 1023.6 982.5
00 24.05 штиль 0 н/о н/о +5.8 +2.1 77 +5 +5 1024.2 983.1
01 24.05 штиль 0 н/о н/о +10.6 +4.7 67 +10 +10 1024.5 983.4 +2.2
03 24.05 ЮЗ 2 н/о н/о +17.9 +7.0 49 +18 +18 1024.0 982.9
04 24.05 З 2 н/о н/о +19.2 +6.7 44 +21 +21 комфорт 1023.1 982.0
06 24.05 СЗ 3 н/о н/о +20.9 +4.5 34 +22 +22 комфорт 1021.8 980.8
07 24.05 З 4 н/о н/о +21.1 +4.6 34 +21 +21 комфорт 1022.0 981.0
09 24.05 З 3 н/о н/о +18.3 +4.1 39 +19 +19 1022.0 981.0
10 24.05 Ю 2 н/о н/о +15.6 +4.0 46 +16 +16 1022.2 981.2
12 24.05 Ю 2 н/о н/о +11.1 +2.9 57 +10 +10 1023.2 982.1
13 24.05 штиль 0 н/о н/о +8.5 +2.5 66 +8 +8 1023.8 982.7 +21.9
15 24.05 штиль 0 н/о н/о +6.0 +0.8 69 +5 +5 1023.7 982.6
16 24.05 штиль 0 н/о н/о +5.9 +1.4 73 +5 +5 1023.8 982.7
18 24.05 ЮВ 2 н/о н/о +5.2 +0.8 73 +3 +3 1023.6 982.5
19 24.05 штиль 0 н/о н/о +4.5 +1.2 79 +4 +4 1023.5 982.4
21 24.05 Ю 3 н/о н/о +5.0 +1.7 79 +2 +2 1024.1 983.0
22 24.05 штиль 0 н/о н/о +3.5 +0.9 83 +3 +3 1024.4 983.3
00 25.05 Ю 2 н/о н/о +5.7 +2.4 79 +4 +4 1026.0 984.8
01 25.05 В 3 н/о н/о +13.3 +7.5 68 +12 +12 1026.1 984.9 +2.1
03 25.05 В 4 н/о н/о +16.8 +8.8 59 +16 +16 1025.4 984.2
04 25.05 ЮВ 4 н/о н/о +17.7 +8.0 53 +17 +17 1024.4 983.3
06 25.05 ЮВ 4 н/о н/о +19.6 +6.4 42 +20 +20 1023.0 981.9
07 25.05 ЮВ 3 н/о н/о +19.6 +5.3 39 +20 +20 1022.8 981.7
09 25.05 В 3 н/о н/о +17.7 +4.3 41 +18 +18 1023.2 982.1
10 25.05 В 3 н/о н/о +14.6 +4.0 49 +14 +14 1023.9 982.8
12 25.05 ЮВ 5 н/о н/о +11.8 +4.3 60 +10 +10 1024.7 983.6
13 25.05 В 4 н/о н/о +11.6 +5.7 67 +10 +10 1025.0 983.9 +20.5
15 25.05 ЮВ 3 н/о н/о +10.0 +5.4 73 +8 +8 1024.8 983.7
16 25.05 ЮВ 4 н/о н/о +10.3 +5.7 73 +8 +8 1024.5 983.4

 

Местоположение метеостанции Саутерн Кросс (Западная Австралия, Австралия): широта -31.23 долгота 119.35 высота над уровнем моря 348 м.

В архиве по умолчанию представлена погода в Саутерн Кросс за последнюю неделю. Архивные данные за месяц целиком и за предыдущие месяцы, начиная с января 2011 года, Вы можете получить, выбрав интересующий диапазон дат из раскрывающегося списка и нажав кнопку "Ввод!".


*Определитесь, кто Вы:
робот инопланетянин человек

Внимание! Время в таблицах - всемирное. Для получения местного времени необходимо прибавить поправку, которая равна 8 ч.

Смотрите также архив погоды в соседних городах и на ближайших метеорологических станциях:

Погода в Калгурли-Боулдере (Западная Австралия, Австралия) (206 км)
Погода в Кандердине (Западная Австралия, Австралия) (207 км)
Погода в Ньюдегейте (Западная Австралия, Австралия) (216 км)
Погода на Озере Грейс (Западная Австралия, Австралия) (224 км)
Погода в Норсмане (Западная Австралия, Австралия) (252 км)
Погода в Дауоллину (Западная Австралия, Австралия) (277 км)
Погода в Мунглинап Запад (Западная Австралия, Австралия) (288 км)
Погода в Салмон Гамс (Западная Австралия, Австралия) (289 км)
Погода в Джакапе (Западная Австралия, Австралия) (296 км)
Погода в Уондеринге (Западная Австралия, Австралия) (299 км)

Пояснения к столбцам:

Ветер - указаны скорость ветра в м/с - средняя за 10 мин, порывы в срок и между сроками (в фигурных скобках) и направление, откуда дует ветер: С - северный, СВ - северо-восточный, В - восточный, ЮВ - юго-восточный, Ю - южный, ЮЗ - юго-западный, З - западный, СЗ - северо-западный.
Видимость - горизонтальная дальность видимости в метрах или километрах. При видимости от 1 до 10 км при отсутствии осадков обычно наблюдается дымка, при ухудшении видимости до 1 км и менее - туман. В сухую погоду видимость может ухудшаться дымом, пылью или мглою.
Явления - указаны атмосферные явления, наблюдавшиеся в срок или в последний час перед сроком; фигурными скобками обозначены явления, наблюдавшиеся между сроками (за 1-3 часа до срока); квадратными скобками обозначены град или гололедные отложения с указанием их диаметра в мм.
Облачность - указаны через наклонную черту общая и нижняя облачность в баллах и высота нижней границы облаков в метрах; квадратными скобками обозначены формы облаков: Ci - перистые, Cs - перисто-слоистые, Cc - перисто-кучевые, Ac - высококучевые, As - высокослоистые, Sc - слоисто-кучевые, Ns - слоисто-дождевые, Cu - кучевые, Cb - кучево-дождевые. Подробнее классификацию облаков см. в Атласе облаков (PDF).
T - Температура воздуха - температура, измеренная на высоте 2 м над землей.
Td - Температура точки росы - температура, при понижении до которой содержащийся в воздухе водяной пар достигнет насыщения.
f - Относительная влажность воздуха - влажноcть воздуха, измеренная на высоте 2 м над землей.
Te - Эффективная температура - температура, которую ощущает одетый по сезону человек в тени. Характеристика душности погоды. При расчете учитывается влияние влажности воздуха и скорости ветра на теплоощущения человека.
Tes - Эффективная температура на солнце - температура, которую ощущает человек, с поправкой на солнечный нагрев. Характеристика знойности погоды. Зависит от высоты солнца над горизонтом, облачности и скорости ветра. Ночью, в пасмурную погоду, а также при ветре 12 м/с и более поправка равна нулю.
P - Атмосферное давление - приведенное к уровню моря атмосферное давление.
Po - Атмосферное давление - измеренное на уровне метеостанции атмосферное давление.
Tmin - Минимальная температура - минимум температуры воздуха на высоте 2 м над землей.
Tmax - Максимальная температура - максимум температуры воздуха на высоте 2 м над землей.
R - Количество осадков - Количество выпавших осадков за период времени, мм. При наведении курсора мыши на число - период времени, за который выпало указанное количество осадков.
R24 - Количество осадков - Количество выпавших осадков за 24 часа, мм.
S - Снежный покров - Высота снежного покрова, см. При наведении курсора мыши на число - состояние снежного покрова и степень покрытия местности в баллах.